Time,TemperatureF,DewpointF,PressureIn,WindDirection,WindDirectionDegrees,WindSpeedMPH,WindSpeedGustMPH,Humidity,HourlyPrecipIn,Conditions,Clouds,dailyrainin,SoftwareType,DateUTC
2013-08-12 00:02:00,69.0,67.0,29.98,West,271,0.0,2.0,94,0.00,,,0.26,,2013-08-12 04:02:00,
2013-08-12 00:12:00,69.0,68.0,29.98,WSW,253,0.0,-999.0,95,-99.99,,,-99.99,,2013-08-12 04:12:00,
2013-08-12 00:22:00,69.0,68.0,29.98,SW,225,0.0,3.0,96,0.00,,,0.26,,2013-08-12 04:22:00,
2013-08-12 00:33:00,69.0,68.0,29.98,SW,225,0.0,3.0,96,0.00,,,0.26,,2013-08-12 04:33:00,
2013-08-12 00:43:00,68.0,67.0,29.98,SSW,200,2.0,3.0,96,0.00,,,0.26,,2013-08-12 04:43:00,
2013-08-12 00:52:00,68.0,67.0,29.98,SW,228,0.0,2.0,97,0.00,,,0.26,,2013-08-12 04:52:00,
2013-08-12 01:02:00,68.0,67.0,29.98,SW,228,0.0,2.0,97,0.00,,,0.26,,2013-08-12 05:02:00,
2013-08-12 01:11:00,68.0,67.0,29.98,SW,228,0.0,0.0,97,0.00,,,0.26,,2013-08-12 05:11:00,
2013-08-12 01:22:00,68.0,67.0,29.98,SW,224,0.0,0.0,98,0.00,,,0.26,,2013-08-12 05:22:00,
2013-08-12 01:32:00,68.0,67.0,29.98,SW,224,0.0,0.0,98,0.00,,,0.26,,2013-08-12 05:32:00,
2013-08-12 01:43:00,67.0,66.0,29.98,SSW,208,0.0,2.0,97,0.00,,,0.26,,2013-08-12 05:43:00,
2013-08-12 01:52:00,67.0,66.0,29.97,West,265,1.0,3.0,98,0.00,,,0.26,,2013-08-12 05:52:00,
2013-08-12 02:02:00,67.0,66.0,29.97,West,265,1.0,3.0,98,0.00,,,0.26,,2013-08-12 06:02:00,
2013-08-12 02:11:00,68.0,67.0,29.97,WSW,255,0.0,2.0,98,0.00,,,0.26,,2013-08-12 06:11:00,
2013-08-12 02:22:00,68.0,67.0,29.98,WSW,255,0.0,1.0,98,0.00,,,0.26,,2013-08-12 06:22:00,
2013-08-12 02:32:00,68.0,67.0,29.98,WSW,255,0.0,1.0,98,0.00,,,0.26,,2013-08-12 06:32:00,
2013-08-12 02:42:00,68.0,67.0,29.98,SW,224,1.0,2.0,98,0.00,,,0.26,,2013-08-12 06:42:00,
2013-08-12 02:52:00,68.0,67.0,29.97,SW,224,0.0,2.0,98,0.00,,,0.26,,2013-08-12 06:52:00,
2013-08-12 03:01:00,68.0,67.0,29.97,SW,224,0.0,2.0,98,0.00,,,0.26,,2013-08-12 07:01:00,
2013-08-12 03:12:00,68.0,67.0,29.96,WNW,300,0.0,2.0,98,0.00,,,0.26,,2013-08-12 07:12:00,
2013-08-12 03:22:00,68.0,67.0,29.96,WNW,297,0.0,0.0,98,0.00,,,0.26,,2013-08-12 07:22:00,
2013-08-12 03:33:00,68.0,67.0,29.96,WNW,297,0.0,0.0,98,0.00,,,0.26,,2013-08-12 07:33:00,
2013-08-12 03:43:00,68.0,67.0,29.96,SSW,203,1.0,2.0,98,0.00,,,0.26,,2013-08-12 07:43:00,
2013-08-12 03:52:00,67.0,66.0,29.95,SSW,207,0.0,2.0,98,0.00,,,0.26,,2013-08-12 07:52:00,
2013-08-12 04:02:00,67.0,66.0,29.95,SSW,207,0.0,2.0,98,0.00,,,0.26,,2013-08-12 08:02:00,
2013-08-12 04:12:00,67.0,66.0,29.95,SSW,207,0.0,1.0,98,0.00,,,0.26,,2013-08-12 08:12:00,
2013-08-12 04:22:00,67.0,66.0,29.95,SSW,207,0.0,1.0,98,0.00,,,0.26,,2013-08-12 08:22:00,
2013-08-12 04:33:00,67.0,66.0,29.96,SSW,205,0.0,1.0,98,0.00,,,0.26,,2013-08-12 08:33:00,
2013-08-12 04:43:00,68.0,68.0,29.96,SSW,207,0.0,1.0,99,0.00,,,0.26,,2013-08-12 08:43:00,
2013-08-12 04:53:00,68.0,68.0,29.96,SSW,207,0.0,1.0,99,0.00,,,0.26,,2013-08-12 08:53:00,
2013-08-12 05:02:00,68.0,68.0,29.95,SW,226,2.0,4.0,99,0.00,,,0.26,,2013-08-12 09:02:00,
2013-08-12 05:11:00,68.0,68.0,29.96,SW,214,0.0,2.0,99,0.00,,,0.26,,2013-08-12 09:11:00,
2013-08-12 05:22:00,68.0,68.0,29.96,SW,214,0.0,0.0,99,0.00,,,0.26,,2013-08-12 09:22:00,
2013-08-12 05:32:00,68.0,68.0,29.96,SW,214,0.0,0.0,99,0.00,,,0.26,,2013-08-12 09:32:00,
2013-08-12 05:43:00,68.0,68.0,29.96,SW,217,1.0,2.0,99,0.00,,,0.26,,2013-08-12 09:43:00,
2013-08-12 05:53:00,68.0,68.0,29.94,West,276,1.0,3.0,99,0.00,,,0.26,,2013-08-12 09:53:00,
2013-08-12 06:02:00,68.0,68.0,29.94,West,276,1.0,3.0,99,0.00,,,0.26,,2013-08-12 10:02:00,
2013-08-12 06:12:00,68.0,68.0,29.95,WSW,255,0.0,1.0,99,0.00,,,0.26,,2013-08-12 10:12:00,
2013-08-12 06:22:00,68.0,68.0,29.96,WSW,256,0.0,0.0,99,0.00,,,0.26,,2013-08-12 10:22:00,
2013-08-12 06:32:00,68.0,68.0,29.96,WSW,256,0.0,0.0,99,0.00,,,0.26,,2013-08-12 10:32:00,
2013-08-12 06:43:00,68.0,68.0,29.95,SSW,204,0.0,2.0,99,0.00,,,0.26,,2013-08-12 10:43:00,
2013-08-12 06:52:00,68.0,67.0,29.96,SW,232,0.0,3.0,98,0.00,,,0.26,,2013-08-12 10:52:00,
2013-08-12 07:02:00,68.0,67.0,29.96,SW,232,0.0,3.0,98,0.00,,,0.26,,2013-08-12 11:02:00,
2013-08-12 07:12:00,68.0,68.0,29.96,SSW,208,0.0,2.0,99,0.00,,,0.26,,2013-08-12 11:12:00,
2013-08-12 07:32:00,68.0,68.0,29.97,WSW,244,1.0,3.0,99,0.00,,,0.26,,2013-08-12 11:32:00,
2013-08-12 07:42:00,69.0,69.0,29.96,WSW,241,1.0,2.0,99,0.00,,,0.26,,2013-08-12 11:42:00,
2013-08-12 07:52:00,69.0,69.0,29.96,WSW,241,1.0,2.0,99,0.00,,,0.26,,2013-08-12 11:52:00,
2013-08-12 08:02:00,69.0,69.0,29.96,SW,226,0.0,3.0,99,0.00,,,0.26,,2013-08-12 12:02:00,
2013-08-12 08:12:00,69.0,68.0,29.97,SW,224,0.0,2.0,98,0.00,,,0.26,,2013-08-12 12:12:00,
2013-08-12 08:22:00,69.0,68.0,29.97,SW,224,0.0,2.0,98,0.00,,,0.26,,2013-08-12 12:22:00,
2013-08-12 08:32:00,70.0,69.0,29.97,South,177,1.0,3.0,98,0.00,,,0.26,,2013-08-12 12:32:00,
2013-08-12 08:43:00,70.0,69.0,29.97,SSW,194,1.0,3.0,97,0.00,,,0.26,,2013-08-12 12:43:00,
2013-08-12 08:52:00,70.0,69.0,29.97,SSW,194,1.0,3.0,97,0.00,,,0.26,,2013-08-12 12:52:00,
2013-08-12 09:02:00,70.0,69.0,29.96,SSW,201,2.0,3.0,97,0.00,,,0.26,,2013-08-12 13:02:00,
2013-08-12 09:12:00,70.0,69.0,29.96,SSW,198,0.0,4.0,98,0.00,,,0.26,,2013-08-12 13:12:00,
2013-08-12 09:22:00,70.0,69.0,29.96,SSW,198,0.0,4.0,98,0.00,,,0.26,,2013-08-12 13:22:00,
2013-08-12 09:33:00,70.0,69.0,29.96,South,191,2.0,5.0,97,0.00,,,0.26,,2013-08-12 13:33:00,
2013-08-12 09:43:00,71.0,70.0,29.96,SSW,210,3.0,6.0,96,0.00,,,0.26,,2013-08-12 13:43:00,
2013-08-12 09:53:00,71.0,70.0,29.96,SSW,210,3.0,6.0,96,0.00,,,0.26,,2013-08-12 13:53:00,
2013-08-12 10:02:00,72.0,70.0,29.96,South,174,3.0,7.0,93,0.00,,,0.26,,2013-08-12 14:02:00,
2013-08-12 10:11:00,72.0,70.0,29.96,SSW,194,3.0,6.0,92,0.00,,,0.26,,2013-08-12 14:11:00,
2013-08-12 10:22:00,72.0,70.0,29.96,SSW,194,3.0,6.0,92,0.00,,,0.26,,2013-08-12 14:22:00,
2013-08-12 10:32:00,72.0,70.0,29.96,South,177,3.0,5.0,92,0.00,,,0.26,,2013-08-12 14:32:00,
2013-08-12 10:42:00,73.0,70.0,29.96,SW,214,3.0,6.0,90,0.00,,,0.26,,2013-08-12 14:42:00,
2013-08-12 10:52:00,73.0,70.0,29.96,SW,214,3.0,6.0,90,0.00,,,0.26,,2013-08-12 14:52:00,
2013-08-12 11:02:00,73.0,70.0,29.97,SSW,210,3.0,5.0,89,0.00,,,0.26,,2013-08-12 15:02:00,
2013-08-12 11:33:00,75.0,70.0,29.96,SW,214,4.0,8.0,85,0.00,,,0.26,,2013-08-12 15:33:00,
2013-08-12 11:43:00,75.0,69.0,29.96,SW,215,6.0,8.0,82,0.00,,,0.26,,2013-08-12 15:43:00,
2013-08-12 12:02:00,76.0,70.0,29.96,WSW,246,3.0,8.0,81,0.00,,,0.26,,2013-08-12 16:02:00,
2013-08-12 12:33:00,78.0,71.0,29.95,SSW,193,1.0,7.0,78,0.00,,,0.26,,2013-08-12 16:33:00,
2013-08-12 12:43:00,77.0,70.0,29.95,South,176,1.0,7.0,79,0.00,,,0.26,,2013-08-12 16:43:00,
2013-08-12 12:53:00,77.0,70.0,29.95,South,176,1.0,7.0,79,0.00,,,0.26,,2013-08-12 16:53:00,
2013-08-12 13:02:00,79.0,70.0,29.95,WSW,243,1.0,5.0,73,0.00,,,0.26,,2013-08-12 17:02:00,
2013-08-12 13:22:00,78.0,69.0,29.95,West,263,1.0,6.0,73,0.00,,,0.26,,2013-08-12 17:22:00,
2013-08-12 13:32:00,78.0,67.0,29.95,South,189,1.0,7.0,70,0.00,,,0.26,,2013-08-12 17:32:00,
2013-08-12 13:43:00,80.0,68.0,29.95,WSW,243,3.0,6.0,68,0.00,,,0.26,,2013-08-12 17:43:00,
2013-08-12 14:02:00,80.0,62.0,29.95,ESE,115,4.0,6.0,55,0.00,,,0.26,,2013-08-12 18:02:00,
2013-08-12 14:11:00,81.0,62.0,29.95,East,101,5.0,7.0,53,0.00,,,0.26,,2013-08-12 18:11:00,
2013-08-12 14:24:00,81.0,62.0,29.95,East,101,5.0,7.0,53,0.00,,,0.26,,2013-08-12 18:24:00,
2013-08-12 14:32:00,81.0,63.0,29.94,ESE,111,5.0,9.0,55,0.00,,,0.26,,2013-08-12 18:32:00,
2013-08-12 14:43:00,81.0,63.0,29.94,SSW,193,3.0,8.0,55,0.00,,,0.26,,2013-08-12 18:43:00,
2013-08-12 14:52:00,81.0,63.0,29.94,SSW,193,3.0,8.0,55,0.00,,,0.26,,2013-08-12 18:52:00,
2013-08-12 15:02:00,81.0,63.0,29.94,WNW,283,3.0,8.0,55,0.00,,,0.26,,2013-08-12 19:02:00,
2013-08-12 15:22:00,82.0,64.0,29.93,East,100,2.0,5.0,54,0.00,,,0.26,,2013-08-12 19:22:00,
2013-08-12 15:33:00,82.0,64.0,29.93,East,100,2.0,5.0,54,0.00,,,0.26,,2013-08-12 19:33:00,
2013-08-12 15:43:00,82.0,64.0,29.93,East,101,5.0,8.0,55,0.00,,,0.26,,2013-08-12 19:43:00,
2013-08-12 15:52:00,82.0,64.0,29.93,East,101,5.0,8.0,55,0.00,,,0.26,,2013-08-12 19:52:00,
2013-08-12 16:02:00,82.0,65.0,29.93,East,87,1.0,7.0,57,0.00,,,0.26,,2013-08-12 20:02:00,
2013-08-12 16:32:00,82.0,65.0,29.92,ESE,117,4.0,7.0,57,0.00,,,0.26,,2013-08-12 20:32:00,
2013-08-12 16:42:00,82.0,64.0,29.91,ENE,72,4.0,6.0,54,0.00,,,0.26,,2013-08-12 20:42:00,
2013-08-12 16:52:00,82.0,64.0,29.91,ENE,72,4.0,6.0,54,0.00,,,0.26,,2013-08-12 20:52:00,
2013-08-12 17:01:00,82.0,65.0,29.91,ESE,115,2.0,6.0,56,0.00,,,0.26,,2013-08-12 21:01:00,
2013-08-12 17:22:00,83.0,64.0,29.90,ENE,60,4.0,8.0,52,0.00,,,0.26,,2013-08-12 21:22:00,
2013-08-12 17:32:00,83.0,64.0,29.90,ENE,60,4.0,8.0,52,0.00,,,0.26,,2013-08-12 21:32:00,
2013-08-12 17:43:00,83.0,64.0,29.90,East,101,5.0,6.0,52,0.00,,,0.26,,2013-08-12 21:43:00,
2013-08-12 17:52:00,83.0,64.0,29.90,East,101,5.0,6.0,52,0.00,,,0.26,,2013-08-12 21:52:00,
2013-08-12 18:02:00,82.0,64.0,29.90,ESE,105,1.0,6.0,55,0.00,,,0.26,,2013-08-12 22:02:00,
2013-08-12 18:32:00,82.0,64.0,29.88,ESE,121,2.0,5.0,54,0.00,,,0.26,,2013-08-12 22:32:00,
2013-08-12 18:43:00,82.0,64.0,29.89,East,83,3.0,5.0,55,0.00,,,0.26,,2013-08-12 22:43:00,
2013-08-12 18:53:00,82.0,64.0,29.88,East,99,2.0,4.0,55,0.00,,,0.26,,2013-08-12 22:53:00,
2013-08-12 19:02:00,82.0,64.0,29.88,East,99,2.0,4.0,55,0.00,,,0.26,,2013-08-12 23:02:00,
2013-08-12 19:11:00,81.0,64.0,29.88,East,86,1.0,4.0,56,0.00,,,0.26,,2013-08-12 23:11:00,
2013-08-12 19:22:00,81.0,64.0,29.88,East,86,1.0,4.0,56,0.00,,,0.26,,2013-08-12 23:22:00,
2013-08-12 19:43:00,81.0,64.0,29.88,ESE,108,1.0,3.0,56,0.00,,,0.26,,2013-08-12 23:43:00,
2013-08-12 19:53:00,81.0,66.0,29.89,NNE,27,0.0,2.0,61,0.00,,,0.26,,2013-08-12 23:53:00,
2013-08-12 20:12:00,79.0,68.0,29.89,NW,308,2.0,3.0,69,0.00,,,0.26,,2013-08-13 00:12:00,
2013-08-12 20:24:00,78.0,67.0,29.89,NW,324,2.0,3.0,68,0.00,,,0.26,,2013-08-13 00:24:00,
2013-08-12 20:45:00,77.0,66.0,29.89,NW,323,0.0,3.0,68,0.00,,,0.26,,2013-08-13 00:45:00,
2013-08-12 20:53:00,76.0,68.0,29.89,WSW,250,3.0,4.0,76,0.00,,,0.26,,2013-08-13 00:53:00,
2013-08-12 21:13:00,74.0,67.0,29.88,SSW,208,0.0,2.0,79,0.00,,,0.26,,2013-08-13 01:13:00,
2013-08-12 21:24:00,73.0,68.0,29.88,SSW,198,2.0,3.0,84,0.00,,,0.26,,2013-08-13 01:24:00,
2013-08-12 21:42:00,72.0,67.0,29.88,SW,229,0.0,4.0,85,0.00,,,0.26,,2013-08-13 01:42:00,
2013-08-12 21:55:00,72.0,68.0,29.88,SW,226,0.0,2.0,86,0.00,,,0.26,,2013-08-13 01:55:00,
2013-08-12 22:11:00,71.0,67.0,29.89,SSW,203,1.0,3.0,88,0.00,,,0.26,,2013-08-13 02:11:00,
2013-08-12 22:22:00,71.0,67.0,29.88,South,184,0.0,3.0,88,0.00,,,0.26,,2013-08-13 02:22:00,
2013-08-12 22:43:00,71.0,68.0,29.88,SSW,207,0.0,2.0,89,0.00,,,0.26,,2013-08-13 02:43:00,
2013-08-12 22:52:00,70.0,66.0,29.88,SSW,207,0.0,1.0,88,0.00,,,0.26,,2013-08-13 02:52:00,
2013-08-12 23:11:00,70.0,67.0,29.88,SSW,208,0.0,1.0,90,0.00,,,0.00,,2013-08-13 03:11:00,
2013-08-12 23:22:00,69.0,66.0,29.88,SSW,208,1.0,2.0,91,0.00,,,0.00,,2013-08-13 03:22:00,
2013-08-12 23:43:00,69.0,67.0,29.88,SSW,198,2.0,5.0,92,0.00,,,0.00,,2013-08-13 03:43:00,
2013-08-12 23:54:00,69.0,67.0,29.88,SSW,203,2.0,4.0,92,0.00,,,0.00,,2013-08-13 03:54:00,